Weather reports worldwide

Advertisment
Seward, United States of America (70277): temperature & dewpoint: 21.09.2020 09:00:00 - 27.09.2020 09:00:00 (AKDT)Seward, United States of America (70277): wind speed & gusts: 21.09.2020 09:00:00 - 27.09.2020 09:00:00 (AKDT)Seward, United States of America (70277): wind direction: 21.09.2020 09:00:00 - 27.09.2020 09:00:00 (AKDT)Seward, United States of America (70277): reduced air pressure: 21.09.2020 09:00:00 - 27.09.2020 09:00:00 (AKDT)Seward, United States of America (70277): visibility: 21.09.2020 09:00:00 - 27.09.2020 09:00:00 (AKDT)Seward, United States of America (70277): precipitation: 21.09.2020 09:00:00 - 27.09.2020 09:00:00 (AKDT)
Date & Time tt [°C] td [°C] ff [km/h] ff [kn] fx [km/h] fx [kn] dd ppp [hPa] vv [km] rr [mm]
27.09.2020 09:00:00 - - - - - - - - - -
27.09.2020 08:00:00 8,9 5,0 13 7 - - NNW 982,5 15 0,8
27.09.2020 07:00:00 9,4 5,0 22 12 - - NNE 984,5 11 0,8
27.09.2020 06:00:00 8,3 5,6 21 11 - - N 987,3 16 1,8
27.09.2020 05:00:00 7,8 6,7 8 4 - - WSW 990,3 6 1,5
27.09.2020 04:00:00 7,8 6,7 0 0 - - N 992,3 13 0,5
27.09.2020 03:00:00 8,3 6,7 8 4 - - NNW 993,8 16 0,0
27.09.2020 02:00:00 8,9 6,7 5 3 - - N 995,4 16 1,0
27.09.2020 01:00:00 9,4 7,2 22 12 - - S 996,1 13 1,0
27.09.2020 00:00:00 8,9 8,3 0 0 - - N 996,8 16 1,3
26.09.2020 23:00:00 8,9 7,8 5 3 - - ENE 997,7 6 0,3
26.09.2020 22:00:00 8,9 8,3 0 0 - - N 998,0 16 0,3
26.09.2020 21:00:00 8,9 8,3 8 4 - - ENE 998,4 4,8 3,0
26.09.2020 20:00:00 9,4 8,9 0 0 - - N 998,6 10 2,5
26.09.2020 19:00:00 9,4 8,9 0 0 - - N 998,5 6 1,8
26.09.2020 18:00:00 9,4 8,9 5 3 - - SSW 998,6 16 0,8
26.09.2020 17:00:00 10,0 9,4 0 0 - - N 998,8 11 1,0
26.09.2020 16:00:00 10,6 9,4 0 0 - - N 998,8 15 1,0
26.09.2020 15:00:00 10,6 9,4 5 3 - - NW 999,0 16 0,8
26.09.2020 14:00:00 9,4 8,3 8 4 - - ESE 999,5 10 3,0
26.09.2020 13:00:00 10,6 8,9 5 3 - - SSW 999,0 16 0,3
26.09.2020 12:00:00 9,4 8,3 0 0 - - N 998,8 11 0,8
26.09.2020 11:00:00 9,4 8,3 0 0 - - N 998,5 16 0,3
26.09.2020 10:00:00 8,9 8,3 5 3 - - NNE 998,1 16 1,8
26.09.2020 09:00:00 8,3 7,8 0 0 - - N 997,8 15 0,8
26.09.2020 08:00:00 8,3 7,8 9 5 - - NNW 997,6 16 2,3
26.09.2020 07:00:00 8,3 7,8 8 4 - - NW 997,6 6 2,3
26.09.2020 06:00:00 8,3 7,8 0 0 - - N 997,5 8 1,0
26.09.2020 05:00:00 8,9 7,8 8 4 - - NNW 997,0 16 0,0
26.09.2020 04:00:00 8,3 7,8 8 4 - - N 997,0 16 2,8
26.09.2020 03:00:00 8,3 7,8 0 0 - - N 996,7 8 0,5
26.09.2020 02:00:00 8,3 7,8 0 0 - - N 996,0 13 0,8
26.09.2020 01:00:00 8,3 7,2 0 0 - - N 995,4 16 -
26.09.2020 00:00:00 7,8 7,2 0 0 - - N 994,8 16 -
25.09.2020 23:00:00 9,4 8,3 0 0 - - N 994,1 16 -
25.09.2020 22:00:00 9,4 8,9 0 0 - - N 993,4 16 -
25.09.2020 21:00:00 10,0 8,9 5 3 - - NNW 992,8 16 0,0
25.09.2020 20:00:00 10,6 9,4 0 0 - - N 992,3 16 -
25.09.2020 19:00:00 11,1 8,9 5 3 - - S 991,9 16 -
25.09.2020 18:00:00 11,7 8,9 5 3 - - S 991,5 16 -
25.09.2020 17:00:00 11,7 9,4 5 3 - - S 991,0 16 -
25.09.2020 16:00:00 12,2 8,3 5 3 - - S 990,7 16 -
25.09.2020 15:00:00 11,7 7,8 0 0 - - N 990,4 16 -
25.09.2020 14:00:00 11,1 8,3 5 3 - - S 990,3 16 -
25.09.2020 13:00:00 11,1 8,3 8 4 - - S 990,1 16 -
25.09.2020 12:00:00 11,1 7,8 9 5 - - NNW 989,6 16 -
25.09.2020 11:00:00 9,4 7,8 9 5 - - NNW 989,4 16 -
25.09.2020 10:00:00 8,3 7,2 9 5 - - NW 989,3 16 -
25.09.2020 09:00:00 7,8 6,7 8 4 - - NNW 989,1 16 -
25.09.2020 08:00:00 7,8 7,2 8 4 - - N 988,9 16 -
25.09.2020 07:00:00 7,8 7,2 11 6 - - NNW 989,0 16 -
25.09.2020 06:00:00 7,8 7,2 9 5 - - NNW 989,2 16 -
25.09.2020 05:00:00 7,8 7,2 0 0 - - N 989,3 16 -
25.09.2020 04:00:00 7,8 6,7 0 0 - - N 989,3 16 -
25.09.2020 03:00:00 8,3 7,8 0 0 - - N 989,2 16 -
25.09.2020 02:00:00 8,9 8,3 5 3 - - NNW 989,2 16 0,0
25.09.2020 01:00:00 8,9 7,8 0 0 - - N 989,4 16 0,0
25.09.2020 00:00:00 8,9 8,3 0 0 - - N 989,3 2,4 -
24.09.2020 23:00:00 9,4 8,3 5 3 - - NNE 989,3 6 -
24.09.2020 22:00:00 10,0 8,9 0 0 - - N 989,0 13 0,3
24.09.2020 21:00:00 10,0 9,4 0 0 - - N 989,0 16 0,3
24.09.2020 20:00:00 10,6 9,4 0 0 - - N 988,9 16 0,5
24.09.2020 19:00:00 11,1 9,4 11 6 - - S 988,7 4,8 0,8
24.09.2020 18:00:00 11,7 8,9 8 4 - - SSE 988,6 16 0,0
24.09.2020 17:00:00 12,8 8,3 8 4 - - NE 988,4 16 0,0
24.09.2020 16:00:00 13,3 7,8 8 4 - - N 988,3 16 -
24.09.2020 15:00:00 13,9 8,3 5 3 - - N 988,0 16 -
24.09.2020 14:00:00 13,3 8,3 15 8 - - NNE 987,8 16 -
24.09.2020 13:00:00 12,8 8,3 11 6 - - NNE 987,6 16 0,0
24.09.2020 12:00:00 12,2 7,8 16 9 - - NNE 987,4 16 0,0
24.09.2020 11:00:00 11,1 7,8 15 8 - - NNE 987,3 16 0,0
24.09.2020 10:00:00 10,0 7,2 13 7 - - N 986,9 16 0,3
24.09.2020 09:00:00 9,4 6,7 16 9 - - NNE 986,7 16 -
24.09.2020 08:00:00 9,4 6,7 15 8 - - NNE 986,5 16 0,0
24.09.2020 07:00:00 9,4 7,2 11 6 - - NNE 986,5 16 0,0
24.09.2020 06:00:00 10,0 6,7 11 6 - - NNE 986,4 16 -
24.09.2020 05:00:00 10,0 6,7 9 5 - - NNE 986,2 16 -
24.09.2020 04:00:00 10,0 7,2 13 7 - - N 986,2 16 -
24.09.2020 03:00:00 10,6 7,2 11 6 - - NNE 986,0 16 0,0
24.09.2020 02:00:00 10,6 7,2 11 6 - - NNE 985,9 16 0,0
24.09.2020 01:00:00 11,1 6,7 13 7 - - N 985,7 16 0,0
24.09.2020 00:00:00 11,7 6,7 11 6 - - N 985,4 16 -
23.09.2020 23:00:00 11,1 7,2 11 6 - - N 985,3 16 0,0
23.09.2020 22:00:00 10,6 7,8 9 5 - - NE 985,2 16 0,3
23.09.2020 21:00:00 11,7 6,7 8 4 - - N 985,3 16 0,0
23.09.2020 20:00:00 12,8 6,1 11 6 - - N 985,2 16 -
23.09.2020 19:00:00 13,3 7,2 15 8 - - NNW 985,2 16 -
23.09.2020 18:00:00 13,9 6,7 15 8 - - N 985,4 16 -
23.09.2020 17:00:00 14,4 6,7 15 8 - - N 985,5 16 -
23.09.2020 16:00:00 14,4 6,7 15 8 - - N 985,6 16 -
23.09.2020 15:00:00 13,9 6,7 15 8 - - N 985,8 16 -
23.09.2020 14:00:00 13,9 6,7 16 9 - - NNW 986,0 16 -
23.09.2020 13:00:00 12,8 6,7 24 13 - - N 986,1 16 -
23.09.2020 12:00:00 12,8 6,7 21 11 - - N 986,1 16 0,0
23.09.2020 11:00:00 12,2 6,7 16 9 - - NNW 986,2 16 0,3
23.09.2020 10:00:00 11,7 6,7 9 5 - - N 986,3 16 0,0
23.09.2020 09:00:00 11,1 6,1 11 6 - - N 986,3 16 -
23.09.2020 08:00:00 11,1 6,1 16 9 - - N 986,5 16 -
23.09.2020 07:00:00 11,7 6,1 18 10 - - NNW 986,5 16 0,0
23.09.2020 06:00:00 10,6 6,7 16 9 - - N 986,7 16 0,0
23.09.2020 05:00:00 11,1 6,7 13 7 - - N 987,1 16 0,0
23.09.2020 04:00:00 11,1 6,7 9 5 - - N 987,4 16 0,0
23.09.2020 03:00:00 10,0 6,1 13 7 - - N 987,8 16 -
23.09.2020 02:00:00 11,1 6,1 11 6 - - NNW 988,1 16 0,0
23.09.2020 01:00:00 11,1 6,1 22 12 - - N 987,6 16 0,3
23.09.2020 00:00:00 11,1 6,1 22 12 - - N 987,7 16 0,0
22.09.2020 23:00:00 11,1 6,1 24 13 - - N 987,9 16 0,0
22.09.2020 22:00:00 11,1 5,6 26 14 - - N 988,3 16 -
22.09.2020 21:00:00 11,7 5,0 24 13 50 27 N 988,4 16 -
22.09.2020 20:00:00 11,7 5,0 34 18 50 27 N 988,5 16 -
22.09.2020 19:00:00 11,7 5,0 34 18 48 26 NNW 988,9 16 0,0
22.09.2020 18:00:00 11,7 4,4 35 19 54 29 N 989,3 16 0,0
22.09.2020 17:00:00 11,1 4,4 29 16 52 28 NNW 989,7 16 0,0
22.09.2020 16:00:00 11,1 5,0 29 16 54 29 NNW 990,1 16 0,0
22.09.2020 15:00:00 10,6 5,6 29 16 48 26 NNW 990,7 16 0,0
22.09.2020 14:00:00 10,0 5,6 28 15 - - N 991,4 16 0,5
22.09.2020 13:00:00 10,6 5,6 35 19 - - NNW 991,5 16 0,0
22.09.2020 12:00:00 12,2 4,4 22 12 50 27 N 992,0 16 0,0
22.09.2020 11:00:00 12,2 4,4 26 14 - - N 992,6 16 0,0
22.09.2020 10:00:00 11,1 4,4 26 14 - - N 993,2 16 -
22.09.2020 09:00:00 10,6 4,4 24 13 - - NNW 993,5 16 -
22.09.2020 08:00:00 10,6 3,9 26 14 - - N 993,9 16 -
22.09.2020 07:00:00 11,1 3,9 15 8 - - N 994,1 16 -
22.09.2020 06:00:00 10,6 4,4 28 15 59 32 NNW 994,2 16 -
22.09.2020 05:00:00 - - - - - - - - - -
22.09.2020 04:00:00 - - - - - - - - - -
22.09.2020 03:00:00 11,1 5,6 13 7 - - NNW 995,2 16 -
22.09.2020 02:00:00 10,0 6,1 8 4 - - NNW 995,8 16 -
22.09.2020 01:00:00 8,3 7,2 9 5 - - NNW 996,3 16 0,0
22.09.2020 00:00:00 8,3 7,2 5 3 - - W 996,7 16 -
21.09.2020 23:00:00 8,3 7,2 8 4 - - N 997,3 16 0,0
21.09.2020 22:00:00 8,9 7,8 0 0 - - N 997,3 16 0,3
21.09.2020 21:00:00 9,4 7,8 0 0 - - N 997,2 16 -
21.09.2020 20:00:00 10,0 7,8 0 0 - - N 997,3 16 -
21.09.2020 19:00:00 10,0 7,2 0 0 - - N 997,4 16 -
21.09.2020 18:00:00 11,7 7,8 0 0 - - N 997,6 16 -
21.09.2020 17:00:00 12,2 7,2 0 0 - - N 997,8 16 -
21.09.2020 16:00:00 11,7 7,2 5 3 - - SW 998,1 16 -
21.09.2020 15:00:00 10,6 7,8 9 5 - - SSE 998,6 16 0,0
21.09.2020 14:00:00 10,0 7,8 11 6 - - S 998,7 16 0,3
21.09.2020 13:00:00 10,6 7,2 0 0 - - N 998,6 16 0,3
21.09.2020 12:00:00 10,0 6,7 9 5 - - SSW 998,6 16 0,0
21.09.2020 11:00:00 10,0 7,2 0 0 - - N 998,7 16 -
21.09.2020 10:00:00 8,9 6,7 0 0 - - N 998,8 16 -
21.09.2020 09:00:00 7,2 6,1 5 3 - - NNW 999,0 16 0,0

tt = temperature
td = dewpoint
ff = wind speed
fx = gusts
dd = wind direction
ppp = reduced air pressure
vv = visibility
rr = precipitation

Next stations